GW1821 Weather Reports


Display with metric or nautical units.
time (UTC)temp
F
wind
direction
speed
MPH
gust
MPH
rain 1hr
in
rain 24hr
in
rain mn
in
humidity
%
barometer
mb
20240305093600 23 18 0.0 1.0 0.00 0.00 0.00 72 1016.4
20240305093100 23 18 0.0 1.0 0.00 0.00 0.00 72 1016.3
20240305092820 23 18 0.0 1.0 0.00 0.00 0.00 72 1016.4
20240305092053 23 18 0.0 2.0 0.00 0.00 0.00 71 1016.4
20240305091552 23 18 0.0 3.0 0.00 0.00 0.00 70 1016.5
20240305091053 23 18 1.0 3.0 0.00 0.00 0.00 70 1016.6
20240305090552 23 18 1.0 3.0 0.00 0.00 0.00 68 1016.5
20240305090048 23 18 1.0 3.0 0.00 0.00 0.00 69 1016.4
20240305085545 23 19 1.0 2.0 0.00 0.00 0.00 69 1016.4
20240305085045 24 19 1.0 3.0 0.00 0.00 0.00 70 1016.4
20240305084542 24 19 1.0 3.0 0.00 0.00 0.00 70 1016.4
20240305084041 24 19 1.0 4.0 0.00 0.00 0.00 70 1016.5
20240305083757 24 19 1.0 4.0 0.00 0.00 0.00 71 1016.6
20240305083019 24 19 0.0 1.0 0.00 0.00 0.00 71 1016.6
20240305082514 24 19 0.0 1.0 0.00 0.00 0.00 69 1016.6
20240305082009 24 19 0.0 3.0 0.00 0.00 0.00 69 1016.8
20240305081502 24 19 1.0 3.0 0.00 0.00 0.00 68 1016.6
20240305080959 25 19 1.0 4.0 0.00 0.00 0.00 68 1016.6
20240305080456 25 19 1.0 4.0 0.00 0.00 0.00 67 1016.6
20240305075955 25 21 1.0 3.0 0.00 0.00 0.00 67 1016.7
20240305075713 24 21 1.0 3.0 0.00 0.00 0.00 67 1016.7
20240305074954 25 23 1.0 3.0 0.00 0.00 0.00 69 1016.6
20240305074449 25 24 1.0 3.0 0.00 0.00 0.00 69 1016.6
20240305073949 25 24 1.0 3.0 0.00 0.00 0.00 69 1016.5
20240305073713 25 9 1.0 3.0 0.00 0.00 0.00 68 1016.6
20240305072936 25 9 1.0 3.0 0.00 0.00 0.00 70 1016.7
20240305072426 25 17 1.0 4.0 0.00 0.00 0.00 70 1016.8
20240305072143 25 14 1.0 4.0 0.00 0.00 0.00 69 1016.7
20240305071423 25 340 1.0 5.0 0.00 0.00 0.00 67 1016.9
20240305071139 25 321 2.0 5.0 0.00 0.00 0.00 67 1016.9
20240305070414 25 348 2.0 4.0 0.00 0.00 0.00 67 1016.9
20240305065909 25 332 2.0 4.0 0.00 0.00 0.00 67 1017.0
20240305065401 25 336 1.0 3.0 0.00 0.00 0.00 69 1016.9
20240305064901 25 333 1.0 3.0 0.00 0.00 0.00 69 1017.0
20240305064358 25 333 1.0 4.0 0.00 0.00 0.00 68 1017.0
20240305063857 26 333 1.0 4.0 0.00 0.00 0.00 68 1017.0
20240305063356 26 326 1.0 3.0 0.00 0.00 0.00 68 1016.9
20240305063115 26 326 1.0 3.0 0.00 0.00 0.00 66 1016.8
20240305062351 26 326 1.0 3.0 0.00 0.00 0.00 66 1016.8
20240305062107 26 326 1.0 3.0 0.00 0.00 0.00 66 1016.8
20240305061342 26 327 1.0 3.0 0.00 0.00 0.00 67 1016.8
20240305060834 27 327 1.0 3.0 0.00 0.00 0.00 66 1016.8
20240305060335 27 321 1.0 3.0 0.00 0.00 0.00 66 1016.8
20240305055834 27 321 1.0 3.0 0.00 0.00 0.00 66 1016.9
20240305055334 27 321 2.0 3.0 0.00 0.00 0.00 65 1016.8
20240305054814 27 321 2.0 5.0 0.00 0.00 0.00 65 1016.9
20240305054315 27 327 2.0 4.0 0.00 0.00 0.00 65 1016.9
20240305053813 27 333 2.0 5.0 0.00 0.00 0.00 65 1016.8
20240305053310 27 321 3.0 5.0 0.00 0.00 0.00 65 1016.6
20240305052807 27 316 2.0 5.0 0.00 0.00 0.00 66 1016.7
20240305052306 27 328 2.0 6.0 0.00 0.00 0.00 67 1016.5
20240305051805 27 300 3.0 6.0 0.00 0.00 0.00 67 1016.5
20240305051304 27 319 3.0 5.0 0.00 0.00 0.00 68 1016.5
20240305050804 27 313 3.0 5.0 0.00 0.00 0.00 68 1016.5
20240305050303 28 312 2.0 4.0 0.00 0.00 0.00 68 1016.4
20240305050031 27 319 2.0 5.0 0.00 0.00 0.00 68 1016.5
20240305045253 27 323 2.0 5.0 0.00 0.00 0.00 69 1016.4
20240305045006 27 346 2.0 4.0 0.00 0.00 0.00 69 1016.2
20240305044327 27 317 2.0 4.0 0.00 0.00 0.00 69 1016.0
20240305043230 27 321 2.0 4.0 0.00 0.00 0.00 70 1015.8
20240305042719 27 315 2.0 4.0 0.00 0.00 0.00 70 1015.9
20240305042223 27 313 1.0 3.0 0.00 0.00 0.00 70 1015.8
20240305041719 27 313 1.0 3.0 0.00 0.00 0.00 71 1015.8
20240305041701 27 314 1.0 3.0 0.00 0.00 0.00 71 1015.9
20240305040718 27 314 2.0 4.0 0.00 0.00 0.00 72 1015.9
20240305040202 27 313 2.0 4.0 0.00 0.00 0.00 71 1015.9
20240305035920 27 305 2.0 3.0 0.00 0.00 0.00 72 1015.9
20240305035157 27 305 1.0 2.0 0.00 0.00 0.00 73 1015.8
20240305034646 27 305 1.0 2.0 0.00 0.00 0.00 73 1015.9
20240305034143 27 305 1.0 2.0 0.00 0.00 0.00 74 1015.7
20240305033645 26 305 1.0 2.0 0.00 0.00 0.00 75 1015.8
20240305033135 27 305 0.0 2.0 0.00 0.00 0.00 75 1015.6
20240305032631 27 305 0.0 1.0 0.00 0.00 0.00 75 1015.6
20240305032123 27 305 0.0 1.0 0.00 0.00 0.00 75 1015.6
20240305031602 27 305 0.0 1.0 0.00 0.00 0.00 74 1015.6
20240305031057 27 305 0.0 1.0 0.00 0.00 0.00 75 1015.6
20240305030551 27 305 0.0 1.0 0.00 0.00 0.00 75 1015.6
20240305030042 27 305 0.0 1.0 0.00 0.00 0.00 74 1015.5
20240305025538 27 305 0.0 1.0 0.00 0.00 0.00 73 1015.5
20240305025031 27 305 0.0 1.0 0.00 0.00 0.00 72 1015.5
20240305024533 27 305 0.0 1.0 0.00 0.00 0.00 73 1015.4
20240305024033 28 305 0.0 0.0 0.00 0.00 0.00 72 1015.4
20240305023527 28 305 0.0 0.0 0.00 0.00 0.00 72 1015.3
20240305023014 28 305 0.0 0.0 0.00 0.00 0.00 71 1015.1
20240305022457 28 305 0.0 0.0 0.00 0.00 0.00 71 1015.3
20240305021957 28 305 0.0 1.0 0.00 0.00 0.00 70 1015.3
20240305021457 29 305 0.0 1.0 0.00 0.00 0.00 70 1015.3
20240305021220 29 305 0.0 1.0 0.00 0.00 0.00 69 1015.1
20240305020457 29 305 0.0 0.0 0.00 0.00 0.00 69 1014.9
20240305015951 29 305 0.0 0.0 0.00 0.00 0.00 69 1014.8
20240305015451 29 305 0.0 0.0 0.00 0.00 0.00 67 1014.7
20240305014943 29 305 0.0 0.0 0.00 0.00 0.00 68 1014.8
20240305014443 30 305 0.0 0.0 0.00 0.00 0.00 67 1014.7
20240305013937 30 305 0.0 0.0 0.00 0.00 0.00 67 1014.6
20240305013433 30 305 0.0 0.0 0.00 0.00 0.00 67 1014.7
20240305012925 31 305 0.0 0.0 0.00 0.00 0.00 66 1014.8
20240305012415 31 305 0.0 1.0 0.00 0.00 0.00 65 1015.0
20240305011911 31 305 0.0 1.0 0.00 0.00 0.00 63 1015.0
20240305011616 32 305 0.0 0.0 0.00 0.00 0.00 62 1014.9
20240305010850 32 305 0.0 0.0 0.00 0.00 0.00 62 1014.8
20240305010345 32 305 0.0 0.0 0.00 0.00 0.00 62 1014.7
20240305010108 33 305 0.0 0.0 0.00 0.00 0.00 60 1014.7
20240305005549 33 305 0.0 0.0 0.00 0.00 0.00 60 1014.6
20240305004827 34 305 0.0 1.0 0.00 0.00 0.00 59 1014.6
20240305004301 34 305 0.0 1.0 0.00 0.00 0.00 58 1014.5
20240305003753 35 305 0.0 1.0 0.00 0.00 0.00 58 1014.4
20240305003226 35 305 0.0 2.0 0.00 0.00 0.00 56 1014.4
20240305002720 35 305 0.0 2.0 0.00 0.00 0.00 56 1014.3
20240305002220 36 305 1.0 3.0 0.00 0.00 0.00 56 1014.0
20240305001709 36 305 1.0 4.0 0.00 0.00 0.00 54 1014.0
20240305001206 37 305 1.0 4.0 0.00 0.00 0.00 54 1014.1
20240305000704 37 305 2.0 4.0 0.00 0.00 0.00 53 1014.0
20240305000427 37 304 2.0 4.0 0.00 0.00 0.00 53 1014.1
20240304235702 38 304 2.0 5.0 0.00 0.00 0.00 53 1014.0
20240304235420 38 326 2.0 7.0 0.00 0.00 0.00 53 1013.9
20240304234700 38 311 2.0 7.0 0.00 0.00 0.00 53 1013.9
20240304234415 38 320 2.0 6.0 0.00 0.00 0.00 52 1013.9
20240304233653 39 350 3.0 7.0 0.00 0.00 0.00 52 1014.0
20240304233148 39 308 4.0 7.0 0.00 0.00 0.00 51 1014.1
20240304232905 39 336 3.0 10.0 0.00 0.00 0.00 51 1014.1
20240304232144 39 338 3.0 10.0 0.00 0.00 0.00 51 1014.1
20240304231638 39 313 4.0 8.0 0.00 0.00 0.00 52 1014.0
20240304231135 39 327 3.0 8.0 0.00 0.00 0.00 52 1014.0
20240304231117 39 19 3.0 9.0 0.00 0.00 0.00 51 1014.0
20240304230356 40 324 2.0 9.0 0.00 0.00 0.00 52 1013.8
20240304225632 40 355 3.0 9.0 0.00 0.00 0.00 52 1013.7
20240304225616 39 340 2.0 9.0 0.00 0.00 0.00 53 1013.7
20240304224629 39 11 2.0 5.0 0.00 0.00 0.00 52 1013.8
20240304224127 39 286 3.0 7.0 0.00 0.00 0.00 52 1013.9
20240304223625 39 329 3.0 10.0 0.00 0.00 0.00 52 1013.7
20240304223122 39 334 3.0 10.0 0.00 0.00 0.00 52 1013.7
20240304222621 39 312 2.0 7.0 0.00 0.00 0.00 51 1013.8
20240304222344 39 274 2.0 5.0 0.00 0.00 0.00 52 1013.8
20240304221620 39 63 2.0 6.0 0.00 0.00 0.00 51 1013.5
20240304221120 39 309 2.0 6.0 0.00 0.00 0.00 50 1013.5
20240304220619 39 26 2.0 7.0 0.00 0.00 0.00 51 1013.6
20240304220115 39 315 2.0 7.0 0.00 0.00 0.00 51 1013.7
20240304215618 39 300 2.0 5.0 0.00 0.00 0.00 52 1013.6
20240304215105 39 302 2.0 8.0 0.00 0.00 0.00 52 1013.6
20240304214606 39 288 3.0 8.0 0.00 0.00 0.00 51 1013.6
20240304214328 39 294 3.0 8.0 0.00 0.00 0.00 51 1013.5
20240304213825 39 11 3.0 8.0 0.00 0.00 0.00 50 1013.6
20240304213101 39 304 2.0 7.0 0.00 0.00 0.00 52 1013.6
20240304212559 39 319 2.0 5.0 0.00 0.00 0.00 52 1013.5
20240304212056 39 295 2.0 6.0 0.00 0.00 0.00 51 1013.5
20240304211555 39 281 2.0 6.0 0.00 0.00 0.00 51 1013.4
20240304211313 39 298 2.0 6.0 0.00 0.00 0.00 51 1013.4
20240304210548 39 281 2.0 6.0 0.00 0.00 0.00 50 1013.5
20240304210045 39 335 2.0 6.0 0.00 0.00 0.00 51 1013.5
20240304205525 39 266 1.0 6.0 0.00 0.00 0.00 51 1013.5
20240304205022 39 325 2.0 6.0 0.00 0.00 0.00 50 1013.3
20240304204519 39 279 2.0 7.0 0.00 0.00 0.00 50 1013.3
20240304204017 39 305 2.0 7.0 0.00 0.00 0.00 50 1013.3
20240304203517 39 281 2.0 6.0 0.00 0.00 0.00 50 1013.2
20240304203012 39 298 2.0 6.0 0.00 0.00 0.00 50 1013.1
20240304202504 39 303 2.0 6.0 0.00 0.00 0.00 51 1012.9
20240304201959 39 355 2.0 7.0 0.00 0.00 0.00 51 1012.8
20240304201452 38 5 2.0 7.0 0.00 0.00 0.00 51 1012.9
20240304200952 39 294 2.0 6.0 0.00 0.00 0.00 50 1013.1
20240304200452 38 344 2.0 6.0 0.00 0.00 0.00 52 1013.2
20240304195949 38 279 1.0 6.0 0.00 0.00 0.00 52 1013.3
20240304195450 38 283 2.0 6.0 0.00 0.00 0.00 51 1013.2
20240304194948 38 273 2.0 6.0 0.00 0.00 0.00 52 1013.2
20240304194449 38 265 1.0 4.0 0.00 0.00 0.00 51 1013.3
20240304193947 38 15 2.0 4.0 0.00 0.00 0.00 51 1013.4
20240304193440 38 10 2.0 4.0 0.00 0.00 0.00 52 1013.4
20240304192937 38 5 1.0 4.0 0.00 0.00 0.00 53 1013.3
20240304192700 37 230 1.0 3.0 0.00 0.00 0.00 53 1013.3
20240304191930 37 231 2.0 5.0 0.00 0.00 0.00 53 1013.4
20240304191424 37 231 3.0 6.0 0.00 0.00 0.00 53 1013.5
20240304190923 37 246 2.0 6.0 0.00 0.00 0.00 53 1013.5
20240304190653 37 252 2.0 6.0 0.00 0.00 0.00 54 1013.5
20240304185921 37 313 1.0 6.0 0.00 0.00 0.00 54 1013.5
20240304185414 36 331 1.0 4.0 0.00 0.00 0.00 53 1013.6
20240304184915 36 331 1.0 4.0 0.00 0.00 0.00 55 1013.6
20240304184413 36 317 1.0 3.0 0.00 0.00 0.00 54 1013.6
20240304183912 36 317 0.0 3.0 0.00 0.00 0.00 54 1013.7
20240304183411 36 317 1.0 4.0 0.00 0.00 0.00 56 1013.7
20240304182905 36 317 2.0 4.0 0.00 0.00 0.00 55 1013.9
20240304182404 36 342 2.0 4.0 0.00 0.00 0.00 56 1013.9
20240304181900 36 329 2.0 6.0 0.00 0.00 0.00 56 1014.0
20240304181354 36 315 3.0 6.0 0.00 0.00 0.00 56 1014.2
20240304180849 35 289 2.0 5.0 0.00 0.00 0.00 57 1014.3
20240304180610 35 277 2.0 5.0 0.00 0.00 0.00 57 1014.2
20240304175852 35 277 2.0 5.0 0.00 0.00 0.00 57 1014.2
20240304175338 35 284 2.0 6.0 0.00 0.00 0.00 57 1014.2
20240304175103 35 284 2.0 6.0 0.00 0.00 0.00 57 1014.1
20240304174333 35 299 2.0 7.0 0.00 0.00 0.00 58 1014.2
20240304174314 35 319 3.0 7.0 0.00 0.00 0.00 58 1014.0
20240304173324 35 304 3.0 9.0 0.00 0.00 0.00 59 1014.1
20240304172825 35 321 3.0 9.0 0.00 0.00 0.00 58 1013.8
20240304172324 35 324 4.0 10.0 0.00 0.00 0.00 59 1013.7
20240304171820 35 312 3.0 10.0 0.00 0.00 0.00 59 1013.7
20240304171321 35 300 3.0 9.0 0.00 0.00 0.00 60 1013.6
20240304170821 35 279 3.0 9.0 0.00 0.00 0.00 59 1013.6
20240304170319 35 287 4.0 10.0 0.00 0.00 0.00 59 1013.6
20240304165816 35 327 4.0 10.0 0.00 0.00 0.00 60 1013.4
20240304165315 35 330 3.0 9.0 0.00 0.00 0.00 59 1013.6
20240304165034 35 319 3.0 8.0 0.00 0.00 0.00 59 1013.6
20240304164317 35 314 3.0 9.0 0.00 0.00 0.00 61 1013.8
20240304164037 35 310 4.0 10.0 0.00 0.00 0.00 60 1013.6
20240304163315 35 305 4.0 10.0 0.00 0.00 0.00 59 1013.5
20240304162810 35 310 4.0 8.0 0.00 0.00 0.00 59 1013.5
20240304162308 35 298 4.0 8.0 0.00 0.00 0.00 60 1013.5
20240304161806 35 284 3.0 8.0 0.00 0.00 0.00 61 1013.5
20240304161304 35 296 3.0 8.0 0.00 0.00 0.00 62 1013.4
20240304160803 35 290 3.0 8.0 0.00 0.00 0.00 62 1013.4
20240304160305 35 322 3.0 8.0 0.00 0.00 0.00 61 1013.4
20240304160018 35 323 3.0 8.0 0.00 0.00 0.00 62 1013.5
20240304155259 35 288 2.0 7.0 0.00 0.00 0.00 61 1013.5
20240304154758 35 273 2.0 5.0 0.00 0.00 0.00 61 1013.6
20240304154256 35 300 2.0 5.0 0.00 0.00 0.00 62 1013.5
20240304153755 35 289 2.0 7.0 0.00 0.00 0.00 62 1013.5
20240304153252 35 273 2.0 7.0 0.00 0.00 0.00 64 1013.6
20240304152752 35 284 2.0 7.0 0.00 0.00 0.00 64 1013.5
20240304152238 35 312 3.0 6.0 0.00 0.00 0.00 65 1013.6
20240304152004 35 257 3.0 8.0 0.00 0.00 0.00 66 1013.5
20240304151239 35 311 3.0 8.0 0.00 0.00 0.00 66 1013.6
20240304150735 35 270 3.0 8.0 0.00 0.00 0.00 66 1013.8
20240304150232 35 248 2.0 6.0 0.00 0.00 0.00 66 1013.8
20240304145725 35 279 2.0 6.0 0.00 0.00 0.00 66 1013.8
20240304145438 35 267 3.0 7.0 0.00 0.00 0.00 65 1013.8
20240304144712 35 268 3.0 7.0 0.00 0.00 0.00 66 1013.8
20240304144212 35 228 2.0 7.0 0.00 0.00 0.00 66 1013.8
20240304143710 35 229 3.0 7.0 0.00 0.00 0.00 65 1013.6
20240304143208 35 266 2.0 6.0 0.00 0.00 0.00 66 1013.5
20240304142929 35 250 2.0 7.0 0.00 0.00 0.00 66 1013.5
20240304142200 35 277 2.0 9.0 0.00 0.00 0.00 66 1013.5
20240304141700 35 264 3.0 9.0 0.00 0.00 0.00 65 1013.5
20240304141156 35 273 4.0 9.0 0.00 0.00 0.00 65 1013.4
20240304140657 35 228 3.0 9.0 0.00 0.00 0.00 66 1013.4
20240304140154 35 218 3.0 9.0 0.00 0.00 0.00 66 1013.3
20240304140134 35 273 4.0 12.0 0.00 0.00 0.00 66 1013.3
20240304135145 35 271 4.0 12.0 0.00 0.00 0.00 66 1013.3
20240304134644 35 220 4.0 9.0 0.00 0.00 0.00 66 1013.1
20240304134140 35 205 4.0 9.0 0.00 0.00 0.00 67 1013.2
20240304133904 35 288 4.0 9.0 0.00 0.00 0.00 66 1013.1
20240304133140 35 261 4.0 11.0 0.00 0.00 0.00 66 1012.8
20240304132903 35 221 4.0 11.0 0.00 0.00 0.00 67 1013.0
20240304132139 35 281 4.0 9.0 0.00 0.00 0.00 68 1012.8
20240304131634 35 275 3.0 9.0 0.00 0.00 0.00 69 1012.7
20240304131134 35 217 3.0 8.0 0.00 0.00 0.00 70 1012.8
20240304130634 35 232 2.0 8.0 0.00 0.00 0.00 70 1012.6
20240304130121 35 241 3.0 9.0 0.00 0.00 0.00 70 1012.4
20240304125620 35 264 3.0 9.0 0.00 0.00 0.00 70 1012.3
20240304125118 35 275 3.0 8.0 0.00 0.00 0.00 71 1012.2
20240304124616 35 265 3.0 8.0 0.00 0.00 0.00 71 1012.0
20240304124116 35 248 3.0 8.0 0.00 0.00 0.00 71 1011.8
20240304123612 35 247 3.0 8.0 0.00 0.00 0.00 72 1011.9
20240304123108 35 263 3.0 9.0 0.00 0.00 0.00 72 1011.5
20240304122608 35 240 4.0 9.0 0.00 0.00 0.00 72 1011.1
20240304122103 35 259 4.0 8.0 0.00 0.00 0.00 72 1010.8
20240304121601 35 285 3.0 7.0 0.00 0.00 0.00 72 1010.7
20240304121100 35 238 3.0 8.0 0.00 0.00 0.00 72 1010.7
20240304120600 35 271 3.0 8.0 0.00 0.00 0.00 72 1010.6
20240304120100 35 275 4.0 8.0 0.00 0.00 0.00 72 1010.5
20240304115551 35 254 3.0 8.0 0.00 0.00 0.00 72 1010.4
20240304115051 35 250 3.0 8.0 0.00 0.00 0.00 73 1010.5
20240304114806 35 250 4.0 8.0 0.00 0.00 0.00 72 1010.6
20240304114042 35 239 3.0 7.0 0.00 0.00 0.00 73 1010.7
20240304113541 35 265 3.0 7.0 0.00 0.00 0.00 73 1010.9
20240304113035 35 282 3.0 7.0 0.00 0.00 0.00 72 1010.8
20240304112534 35 242 2.0 7.0 0.00 0.00 0.00 72 1010.9
20240304112036 35 175 2.0 6.0 0.00 0.00 0.00 72 1010.8
20240304111535 35 192 2.0 5.0 0.00 0.00 0.00 72 1010.8
20240304111034 35 175 3.0 7.0 0.00 0.00 0.00 72 1010.8
20240304110531 35 189 3.0 7.0 0.00 0.00 0.00 72 1010.5
20240304110033 35 163 3.0 6.0 0.00 0.00 0.00 72 1010.2
20240304105511 35 178 2.0 6.0 0.00 0.00 0.00 72 1010.0
20240304105011 35 148 2.0 8.0 0.00 0.00 0.00 72 1009.8
20240304104507 35 290 3.0 8.0 0.00 0.00 0.00 73 1009.3
20240304104006 35 318 3.0 8.0 0.00 0.00 0.00 73 1008.9
20240304103504 35 331 3.0 8.0 0.00 0.00 0.00 73 1009.2
20240304103225 35 263 3.0 8.0 0.00 0.00 0.00 74 1009.4
20240304102502 35 254 3.0 8.0 0.00 0.00 0.00 74 1009.3
20240304101954 35 255 3.0 8.0 0.00 0.00 0.00 73 1009.2
20240304101456 35 277 3.0 8.0 0.00 0.00 0.00 73 1009.3
20240304100444 35 242 4.0 8.0 0.00 0.00 0.00 72 1009.1
20240304100203 35 277 3.0 8.0 0.00 0.00 0.00 72 1008.9
20240304095445 36 258 3.0 8.0 0.00 0.00 0.00 72 1008.7
20240304094943 35 248 4.0 8.0 0.00 0.00 0.00 73 1008.7
20240304094438 35 238 3.0 8.0 0.00 0.00 0.00 73 1008.8
20240304093938 35 266 4.0 8.0 0.00 0.00 0.00 73 1008.6